Location: Alulod
(14.2076°N, 120.8898°E)
Time: 02:48:10
(UTC+00:00)

Cosmos 1092 Rocket - Pass Details

Date: 13 December 2025
Orbit: 953 x 995 km, 83.0° (Epoch: 15 January)

Event Time Altitude Azimuth Distance (km) Brightness Sun altitude
Rises 20:52:44 0° 192° (SSW) 3,696 7.1 -18.7°
Reaches altitude 10° 20:55:17 10° 195° (SSW) 2,744 6.4 -18.1°
Maximum altitude 21:01:29 60° 274° (W) 1,116 4.0 -16.7°
Drops below altitude 10° 21:07:38 10° 354° (N) 2,723 6.1 -15.3°
Sets 21:10:11 0° 358° (N) 3,664 6.8 -14.7°
